Regional Weather Roundup
Issued by NWS Albany, NY

Home | Current Version | Previous Version | Text Only | Print | Product List | Glossary On
Versions: 1 2 3 4 5 6 7 8 9 10 11 12 13 14 15 16 17 18 19 20 21 22 23 24 25 26 27 28 29 30 31 32 33 34 35 36 37 38 39 40 41 42 43 44 45 46 47 48 49 50
579
ASUS41 KALY 260510
RWRALY

NEW YORK STATE HOURLY WEATHER ROUNDUP
NATIONAL WEATHER SERVICE ALBANY NY
100 AM EDT FRI MAY 26 2017

NOTE: "FAIR" INDICATES FEW OR NO CLOUDS BELOW 12,000 FEET WITH NO
SIGNIFICANT WEATHER AND/OR NO OBSTRUCTIONS TO VISIBILITY.

NYZ032-033-038>043-046>054-057>066-NYZ062>081-082-084-260600-
EAST


CITY           SKY/WX    TMP DP  RH WIND       PRES   REMARKS
ALBANY         CLOUDY    55  51  86 N8        29.56F
GLENS FALLS    CLOUDY    54  48  80 N9        29.58
POUGHKEEPSIE   CLOUDY    55  52  89 W6        29.51R
NEWBURGH       RAIN      55  54  94 N7        29.54R
MONTGOMERY     RAIN      55  53  93 NE12      29.51F FOG
WHITE PLAINS   LGT RAIN  56  54  93 NW8       29.47F
ISLIP          RAIN      57  57 100 NE9       29.45F FOG
NEW YORK CITY  LGT RAIN  58  55  90 NE13      29.47F
CENTRAL PARK   CLOUDY    57  56  96 VRB3      29.51F
$$

NYZ005>009-017-018-044>046-055-056-260600-
CENTRAL


CITY           SKY/WX    TMP DP  RH WIND       PRES   REMARKS
FULTON         CLOUDY    57  53  86 VRB3      29.53F
SYRACUSE       CLOUDY    56  53  90 NE6       29.53F
ROME           CLOUDY    56  52  86 SE8       29.57F
ELMIRA         LGT RAIN  59  57  93 W3        29.51F
BINGHAMTON     CLOUDY    54  53  97 CALM      29.52F
MONTICELLO     CLOUDY    52  52 100 E8        29.52F
$$

NYZ026>034-041>043-087-260600-
NORTH


CITY           SKY/WX    TMP DP  RH WIND       PRES   REMARKS
WATERTOWN      CLOUDY    56  56 100 NE7       29.55F
FORT DRUM      NOT AVBL
OGDENSBURG     CLOUDY    55  54  95 E5        29.60S
MASSENA        CLOUDY    55  53  93 NE16G24   29.63R
SARANAC LAKE   CLOUDY    50  50 100 E3        29.59R
PLATTSBURGH    CLOUDY    54  52  93 NE7       29.62F
$$

NYZ001>004-010>016-019>021-085-260600-
WEST


CITY           SKY/WX    TMP DP  RH WIND       PRES   REMARKS
NIAGARA FALLS  FOG       57  53  86 SW7       29.54R VSB 1/4
BUFFALO        FOG       54  53  97 SW9       29.54R VSB 1/2
DUNKIRK        FOG       53  53 100 W7        29.56S VSB 1
JAMESTOWN      CLOUDY    54  52  94 SW7       29.57R
WELLSVILLE     FOG       54  52  93 W3        29.57R VSB<1/4
ROCHESTER      DRIZZLE   55  55 100 W3        29.54R FOG
PENN YAN       MOCLDY    56  54  93 E3        29.54S FOG
$$

             KEY
       WCI = WIND CHILL INDEX
       VSB = VISIBILITY
       HX  = HEAT INDEX
$$




USA.gov is the U.S. government's official web portal to all federal, state and local government web resources and services.